[[{"header":{"parameterUnit":"m.s-1","parameterCategory":1,"la1":30.2991,"la2":30.254,"lo1":-89.0895,"lo2":-89.0444,"dy":0.0017,"dx":0.0017,"nx":28,"ny":28,"refTime":"2024-12-14T03:00:00:Z","depth":0,"parameterNumber":2,"parameterNumberName":"U-component_of_WINDS"},"data":[0,0,0,0,0,0,0,0,0,0,0,0,0,0,0,0,0,0,0,0,0,0,0,0,0,0,0,0,0,0,0,0,0,0,0,0,0,0,0,0,0,0,0,0,0,0,0,0,0,0,0,0,0,0,0,0,0,0,-6.6769,-6.6769,0,-6.6813,-6.6814,-6.6814,-6.6656,-6.6652,-6.6647,-6.6643,-6.6689,-6.6695,-6.67,0,0,0,0,0,0,0,0,0,0,0,0,0,-6.655,-6.6554,-6.6768,-6.6769,-6.677,-6.6813,-6.6814,-6.6814,-6.6657,-6.6652,-6.6646,-6.664,-6.6687,-6.6694,-6.6701,0,0,0,0,0,0,0,0,0,0,0,0,0,-6.6625,-6.6556,-6.6768,-6.6697,-6.669,-6.6813,-6.6814,-6.6814,-6.6658,-6.6651,-6.6644,-6.6638,-6.6685,-6.6693,-6.6702,-6.6895,0,0,-6.6727,-6.6731,0,0,0,0,0,0,0,0,-6.6621,-6.6633,-6.6707,-6.6702,-6.6695,-6.6722,-6.6753,-6.6842,-6.666,-6.6671,-6.6642,-6.6634,-6.6706,-6.6712,-6.6736,-6.6898,-6.69,-6.6728,-6.6733,-6.6737,-6.6739,0,0,0,0,0,0,0,-6.6616,-6.663,-6.6786,-6.6708,-6.6701,-6.6663,-6.6666,-6.6769,-6.6727,-6.6669,-6.6658,-6.6665,-6.6701,-6.6728,-6.6736,-6.69,-6.6728,-6.6735,-6.6741,-6.6744,-6.7225,-6.7232,0,0,0,0,0,0,-6.662,-6.6627,-6.6785,-6.6787,-6.664,-6.6672,-6.6676,-6.6721,-6.6726,-6.672,-6.6671,-6.6658,-6.6717,-6.6726,-6.6737,-6.6964,-6.6737,-6.6745,-6.675,-6.7217,-6.7226,-6.7235,0,0,0,0,0,0,-6.6616,-6.6635,-6.6783,-6.6704,-6.672,-6.6684,-6.6736,-6.6725,-6.6752,-6.6727,-6.6719,-6.6706,-6.6712,-6.6725,-6.6857,-6.6964,-6.6749,-6.6756,-6.7208,-6.722,-6.723,-6.7421,0,0,0,0,0,0,-6.661,-6.6635,-6.6707,-6.6707,-6.6725,-6.6902,-6.6742,-6.6731,-6.6767,-6.6749,-6.6758,-6.6753,-6.6707,-6.6846,-6.6866,-6.6971,-6.6763,-6.7198,-6.7213,-6.7227,-6.7405,-6.7438,-6.7466,0,0,0,0,0,-6.6603,-6.6759,-6.6712,-6.6732,-6.6815,-6.6909,-6.6919,-6.6863,-6.6776,-6.6849,-6.6834,-6.6752,-6.695,-6.6861,-6.6882,-6.6992,-6.7191,-6.7209,-6.7226,-6.7392,-6.7431,-6.7465,0,0,0,0,0,0,-6.6772,-6.6758,-6.6705,-6.6866,-6.689,-6.6882,-6.6972,-6.6907,-6.6957,-6.6938,-6.6868,-6.6871,-6.7017,-6.7017,-6.6919,-6.718,-6.7055,-6.7078,-6.7174,-6.7212,-6.7241,-6.7237,-6.677,0,0,0,0,0,-6.6829,-6.6906,-6.6889,-6.7033,-6.7048,-6.7009,-6.7047,-6.7003,-6.7025,-6.7034,-6.7028,-6.7053,-6.7121,-6.7166,-6.7227,-6.7405,-6.7405,-6.7492,-6.7522,-6.7547,-6.7567,-6.7662,-6.77,-6.7291,-6.7291,-6.7291,0,0,-6.6945,-6.6947,-6.7,-6.7067,-6.708,-6.7162,-6.7018,-6.711,-6.7171,-6.7048,-6.7172,-6.717,-6.7193,-6.735,-6.7418,-6.7355,-6.768,-6.7569,-6.7589,-6.7595,-6.7684,-6.7722,-6.7757,-6.7303,-6.7301,-6.7299,0,0,-6.72,-6.7209,-6.7329,-6.7347,-6.7369,-6.7342,-6.7372,-6.7375,-6.7368,-6.7492,-6.7402,-6.7474,-6.7591,-6.7612,-6.7638,-6.7904,-6.7831,-6.7926,-6.8083,-6.8177,-6.8209,-6.8237,-6.8332,-6.8366,-6.7946,-6.7946,-6.7946,0,-6.7342,-6.7461,-6.74,-6.7499,-6.7532,-6.7426,-6.7548,-6.7568,-6.7609,-6.7634,-6.7563,-6.7709,-6.7718,-6.7878,-6.7943,-6.7968,-6.7999,-6.7923,-6.8209,-6.8237,-6.8262,-6.8351,-6.8387,-6.7957,-6.7956,-6.7955,-6.7954,0,-6.7635,-6.772,-6.7815,-6.7858,-6.7901,-6.8012,-6.7968,-6.802,-6.7973,-6.7955,-6.8083,-6.809,-6.815,-6.8186,-6.814,-6.834,-6.83,-6.8221,-6.8093,-6.8313,-6.8396,-6.843,-6.7974,-6.797,-6.7966,-6.7963,0,0,-6.7994,-6.8004,-6.804,-6.8058,-6.8077,-6.8141,-6.8249,-6.8308,-6.8354,-6.8387,-6.8475,-6.8578,-6.8505,-6.8535,-6.8491,-6.8574,-6.8784,-6.8484,-6.8483,-6.8539,-6.9006,-6.9065,-6.9105,-6.8737,-6.8744,-6.8749,-6.9003,0,-6.8243,-6.8425,-6.8375,-6.8557,-6.8635,-6.8537,-6.863,-6.8652,-6.8639,-6.8703,-6.8688,-6.8763,-6.866,-6.8678,-6.8755,-6.8742,-6.8877,-6.8724,-6.8818,-6.8822,-6.8814,-6.9148,-6.921,-6.945,-6.9035,-6.9041,-6.9045,0,-6.8557,-6.8603,-6.8794,-6.8801,-6.8831,-6.8916,-6.8967,-6.9031,-6.9054,-6.9039,-6.9074,-6.9015,-6.9121,-6.8995,-6.914,-6.9037,-6.9073,-6.9073,-6.9081,-6.9086,-6.8946,-6.9162,-6.9525,-6.9561,-6.9095,-6.9091,-6.9088,0,-6.88,-6.891,-6.9037,-6.9057,-6.9068,-6.913,-6.9138,-6.9155,-6.9195,-6.924,-6.9265,-6.9323,-6.9355,-6.9401,-6.9359,-6.9271,-6.9512,-6.9382,-6.9502,-6.9504,-6.9555,-6.9552,-6.9929,-6.9582,-6.9581,-6.9581,-6.958,0,-6.9082,-6.9202,-6.9147,-6.9225,-6.9357,-6.93,-6.9432,-6.9429,-6.9446,-6.9522,-6.9442,-6.9516,-6.9457,-6.9527,-6.9495,-6.9621,-6.9636,-6.9626,-6.9616,-6.9633,-6.9634,-6.9654,-6.9636,-6.959,-6.9588,-6.9586,-6.9585,0,-6.9374,-6.9341,-6.9474,-6.9476,-6.9479,-6.9576,-6.9577,-6.965,-6.9632,-6.9731,-6.9751,-6.9723,-6.9801,-6.9764,-6.9845,-6.9824,-6.9986,-6.9954,-6.9978,-6.9969,-7.0091,-7.0079,-7.0492,-7.0543,-7.0165,-7.0169,-7.0172,0,-6.9555,-6.9645,-6.9657,-6.9702,-6.9716,-6.9791,-6.9831,-6.9779,-6.9825,-6.986,-6.993,-7.0001,-7.0054,-7.0184,-7.0171,-7.0233,-7.0201,-7.0342,-7.021,-7.0224,-7.0202,-7.0197,-7.0206,-7.0368,-7.0372,-7.0376,-7.0379,0,-6.988,-6.9861,-6.9922,-6.9979,-7.003,-7.0072,-7.0107,-7.015,-7.0099,-7.0155,-7.0233,-7.0275,-7.0359,-7.0431,-7.0486,-7.0494,-7.0429,-7.0421,-7.0452,-7.0468,-7.0478,-7.0474,-7.0048,-7.0411,-7.0408,-7.0405,-7.0403,-7.0402,-7.0121,-7.0197,-7.0218,-7.0289,-7.0311,-7.0347,-7.0416,-7.0407,-7.0472,-7.0536,-7.0502,-7.0594,-7.0617,-7.0685,-7.0703,-7.0774,-7.0719,-7.0764,-7.0775,-7.0786,-7.0802,-7.0469,-7.0785,-7.0784,-7.0783,-7.0782,-7.0781,0,-7.0441,-7.0451,-7.0517,-7.057,-7.0627,-7.0561,-7.0598,-7.065,-7.0732,-7.076,-7.0815,-7.0906,-7.0976,-7.097,-7.1035,-7.1094,-7.1065,-7.1112,-7.1106,-7.1109,-7.0849,-7.0815,-7.1134,-7.1134,-7.1134,-7.1134,-7.1134,-7.1134,-7.0615,-7.074,-7.0723,-7.0859,-7.0867,-7.0957,-7.0984,-7.1017,-7.1038,-7.1144,-7.1202,-7.1198,-7.1213,-7.1278,-7.134,-7.1336,-7.1363,-7.1421,-7.1407,-7.1163,-7.1128,-7.1094,-7.1062,-7.1428,-7.1428,-7.1661,-7.1663,-7.1665]},{"header":{"parameterUnit":"m.s-1","parameterCategory":1,"la1":30.2991,"la2":30.254,"lo1":-89.0895,"lo2":-89.0444,"dy":0.0017,"dx":0.0017,"nx":28,"ny":28,"refTime":"2024-12-14T03:00:00:Z","depth":0,"parameterNumber":3,"parameterNumberName":"V-component_of_WINDS"},"data":[0,0,0,0,0,0,0,0,0,0,0,0,0,0,0,0,0,0,0,0,0,0,0,0,0,0,0,0,0,0,0,0,0,0,0,0,0,0,0,0,0,0,0,0,0,0,0,0,0,0,0,0,0,0,0,0,0,0,1.4003,1.4004,0,1.4041,1.4041,1.4042,1.4093,1.4094,1.4095,1.4096,1.4128,1.4128,1.4128,0,0,0,0,0,0,0,0,0,0,0,0,0,1.3971,1.3972,1.4003,1.4004,1.4004,1.4041,1.4041,1.4042,1.4093,1.4094,1.4095,1.4096,1.4128,1.4128,1.4128,0,0,0,0,0,0,0,0,0,0,0,0,0,1.3995,1.3972,1.4003,1.4034,1.4037,1.4041,1.4041,1.4042,1.4093,1.4094,1.4095,1.4096,1.4128,1.4128,1.4128,1.4103,0,0,1.4129,1.4129,0,0,0,0,0,0,0,0,1.3993,1.3996,1.4029,1.4032,1.4036,1.4064,1.4042,1.4062,1.4092,1.4071,1.4096,1.4097,1.4105,1.4107,1.4111,1.4104,1.4106,1.4129,1.4129,1.4129,1.4129,0,0,0,0,0,0,0,1.3992,1.3994,1.4018,1.4029,1.4033,1.4045,1.405,1.4046,1.408,1.4073,1.4077,1.4081,1.4107,1.4111,1.4113,1.4106,1.4129,1.4129,1.4129,1.4129,1.4082,1.408,0,0,0,0,0,0,1.3986,1.3993,1.4017,1.4019,1.4017,1.4044,1.405,1.4053,1.4081,1.4086,1.408,1.4084,1.411,1.4112,1.4114,1.4087,1.4129,1.4129,1.4129,1.4083,1.4081,1.408,0,0,0,0,0,0,1.3985,1.3988,1.4015,1.4007,1.4011,1.4044,1.4047,1.4053,1.4057,1.4086,1.4092,1.4078,1.4112,1.4114,1.4106,1.4088,1.4129,1.4129,1.4084,1.4082,1.4081,1.4031,0,0,0,0,0,0,1.3984,1.3987,1.3978,1.4007,1.4012,1.4007,1.4046,1.4053,1.4058,1.4063,1.4085,1.409,1.4113,1.4106,1.4106,1.4089,1.4129,1.4086,1.4083,1.4081,1.4034,1.4027,1.4022,0,0,0,0,0,1.3983,1.3961,1.3977,1.398,1.4002,1.4006,1.4009,1.4037,1.4056,1.4047,1.4066,1.409,1.4091,1.4104,1.4105,1.4088,1.4087,1.4084,1.4081,1.4037,1.4029,1.4022,0,0,0,0,0,0,1.3927,1.3965,1.3984,1.3971,1.3985,1.4015,1.4004,1.4027,1.4035,1.4039,1.4071,1.4076,1.4064,1.4076,1.409,1.4066,1.4093,1.409,1.4058,1.4051,1.4045,1.4042,1.4129,0,0,0,0,0,1.3914,1.3916,1.3948,1.3934,1.3941,1.3971,1.3974,1.3995,1.401,1.4016,1.4034,1.4047,1.405,1.4051,1.4056,1.4037,1.4042,1.4026,1.4019,1.4014,1.4011,1.4002,1.3995,1.407,1.407,1.407,0,0,1.3885,1.3906,1.3905,1.3923,1.3937,1.3938,1.3976,1.3974,1.3975,1.4015,1.401,1.4024,1.404,1.4027,1.4022,1.4036,1.3992,1.401,1.4006,1.4005,1.3999,1.3992,1.3985,1.4068,1.4069,1.4069,0,0,1.3833,1.385,1.384,1.3854,1.3875,1.3896,1.3894,1.3921,1.3933,1.3929,1.396,1.396,1.3965,1.3976,1.3982,1.3938,1.396,1.3938,1.3905,1.3897,1.3891,1.3886,1.387,1.3864,1.3935,1.3935,1.3935,0,1.3794,1.3798,1.3831,1.3829,1.3836,1.3877,1.3867,1.3878,1.3898,1.3902,1.3918,1.3927,1.3941,1.3931,1.3921,1.3925,1.3923,1.3935,1.3889,1.3884,1.388,1.3865,1.3859,1.3932,1.3933,1.3933,1.3933,0,1.3749,1.3751,1.3741,1.3763,1.3769,1.3763,1.3795,1.3797,1.3818,1.3837,1.3833,1.3851,1.3861,1.3861,1.388,1.3854,1.3863,1.3884,1.3911,1.387,1.3856,1.3851,1.3928,1.3929,1.393,1.3931,0,0,1.366,1.3704,1.37,1.3711,1.3739,1.374,1.3736,1.3749,1.375,1.3763,1.376,1.3765,1.3786,1.3793,1.3814,1.3807,1.3771,1.3829,1.383,1.3817,1.3745,1.3728,1.3721,1.3787,1.3786,1.3786,1.3743,0,1.3613,1.3611,1.3642,1.363,1.3633,1.3672,1.3669,1.3685,1.3704,1.3708,1.3728,1.3731,1.3758,1.3762,1.3757,1.3777,1.3757,1.378,1.3783,1.3783,1.3777,1.3714,1.3696,1.3655,1.3738,1.3738,1.3737,0,1.3558,1.3571,1.356,1.3591,1.3593,1.359,1.3605,1.3608,1.3628,1.3642,1.3652,1.3677,1.3674,1.3702,1.3699,1.3714,1.3717,1.3727,1.3727,1.3727,1.3756,1.3712,1.3643,1.3636,1.3729,1.373,1.373,0,1.3494,1.351,1.3506,1.3514,1.355,1.3546,1.3561,1.3582,1.3588,1.3601,1.3605,1.3616,1.3621,1.3629,1.3657,1.3674,1.365,1.368,1.3661,1.366,1.3652,1.3652,1.3582,1.3656,1.3656,1.3656,1.3657,0,1.3438,1.3429,1.3478,1.3475,1.3467,1.3504,1.3494,1.3512,1.3531,1.3532,1.3567,1.3566,1.3604,1.3607,1.3629,1.3623,1.3625,1.3636,1.3641,1.3632,1.3631,1.3634,1.3637,1.3655,1.3655,1.3655,1.3656,0,1.3364,1.3397,1.3395,1.343,1.3439,1.3431,1.3461,1.3459,1.3482,1.3482,1.3485,1.3518,1.3525,1.3554,1.3566,1.3581,1.3568,1.3579,1.3562,1.3565,1.3544,1.3546,1.3473,1.3465,1.3544,1.3543,1.3543,0,1.3326,1.3321,1.3357,1.3361,1.3375,1.3381,1.3388,1.3424,1.343,1.3454,1.3449,1.3459,1.3469,1.3477,1.3502,1.3512,1.3524,1.3498,1.3525,1.3517,1.3523,1.3523,1.3522,1.3491,1.349,1.3489,1.3489,0,1.3254,1.3271,1.3281,1.3297,1.3306,1.332,1.3336,1.3337,1.3377,1.3382,1.3391,1.3398,1.3413,1.3422,1.3437,1.3451,1.3476,1.348,1.3476,1.3466,1.3456,1.3461,1.3545,1.3481,1.3482,1.3482,1.3483,1.3483,1.3196,1.3194,1.322,1.3231,1.3247,1.3262,1.3263,1.3287,1.3295,1.3312,1.3332,1.3338,1.3359,1.3383,1.3395,1.3399,1.3413,1.3407,1.3406,1.3403,1.3399,1.3457,1.3402,1.3402,1.3402,1.3403,1.3403,0,1.3126,1.3146,1.3155,1.3178,1.3186,1.3213,1.3232,1.3237,1.3243,1.3262,1.3272,1.3282,1.3292,1.3319,1.3331,1.3329,1.3341,1.3331,1.3331,1.3334,1.3386,1.3388,1.3321,1.3321,1.3321,1.3321,1.3321,1.3321,1.3091,1.3089,1.3109,1.3117,1.3136,1.3144,1.3153,1.3166,1.3182,1.3193,1.3202,1.3221,1.3243,1.3257,1.3267,1.3275,1.3277,1.3263,1.3274,1.3322,1.333,1.3337,1.3339,1.3264,1.3264,1.3222,1.3222,1.3221]}]]